FW1692 Weather Reports


time (UTC)temp
C
wind
direction
speed
KPH
gust
KPH
rain 1hr
cm
rain 24hr
cm
rain mn
cm
humidity
%
barometer
mb
20260505211951 8 0 3.2 11.3 0.00 0.00 0.00 76 1018.4
20260505211713 8 55 6.4 14.5 0.00 0.00 0.00 76 1018.4
20260505210951 8 44 6.4 14.5 0.00 0.00 0.00 76 1018.4
20260505210450 8 337 6.4 19.3 0.00 0.00 0.00 76 1018.4
20260505205950 8 90 8.0 19.3 0.00 0.00 0.00 76 1018.4
20260505205449 9 337 6.4 16.1 0.00 0.00 0.00 76 1018.3
20260505204948 9 42 8.0 14.5 0.00 0.00 0.00 76 1018.3
20260505204447 9 49 4.8 16.1 0.00 0.00 0.00 76 1018.3
20260505203946 9 76 8.0 16.1 0.00 0.00 0.00 76 1018.3
20260505203446 9 56 6.4 16.1 0.00 0.00 0.00 77 1018.3
20260505202946 9 24 4.8 16.1 0.00 0.00 0.00 77 1018.3
20260505202446 9 34 8.0 11.3 0.00 0.00 0.00 77 1018.3
20260505201946 9 30 3.2 14.5 0.00 0.00 0.00 77 1018.2
20260505201447 9 353 8.0 14.5 0.00 0.00 0.00 77 1018.1
20260505200947 10 37 3.2 9.7 0.00 0.00 0.00 77 1018.1
20260505200706 10 0 4.8 14.5 0.00 0.00 0.00 77 1018.0
20260505200216 10 32 4.8 8.0 0.00 0.00 0.00 77 1018.1
20260505195445 10 83 4.8 17.7 0.00 0.00 0.00 77 1018.0
20260505194945 10 35 6.4 17.7 0.00 0.00 0.00 77 1018.0
20260505194445 10 337 6.4 17.7 0.00 0.00 0.00 77 1017.9
20260505193945 10 62 4.8 11.3 0.00 0.00 0.00 77 1017.8
20260505193445 10 345 4.8 11.3 0.00 0.00 0.00 76 1017.8
20260505192943 10 4 4.8 11.3 0.00 0.00 0.00 76 1017.6
20260505192443 10 1 4.8 14.5 0.00 0.00 0.00 76 1017.5
20260505191943 10 16 6.4 14.5 0.00 0.00 0.00 76 1017.5
20260505191937 10 358 6.4 14.5 0.00 0.00 0.00 76 1017.5
20260505190939 10 18 4.8 14.5 0.00 0.00 0.00 76 1017.5
20260505190434 11 0 1.6 11.3 0.00 0.00 0.00 76 1017.3
20260505185935 11 344 4.8 11.3 0.00 0.00 0.00 76 1017.3
20260505185432 11 0 6.4 11.3 0.00 0.00 0.00 76 1017.3
20260505184932 11 90 3.2 11.3 0.00 0.00 0.00 76 1017.3
20260505184432 11 90 4.8 11.3 0.00 0.00 0.00 76 1017.3
20260505183934 11 276 4.8 11.3 0.00 0.00 0.00 76 1017.2
20260505183432 11 17 3.2 11.3 0.00 0.00 0.00 76 1017.1
20260505182932 11 357 3.2 8.0 0.00 0.00 0.00 76 1017.2
20260505182431 11 327 4.8 8.0 0.00 0.00 0.00 76 1017.1
20260505181932 11 94 3.2 11.3 0.00 0.00 0.00 76 1017.1
20260505181432 11 0 4.8 11.3 0.00 0.00 0.00 75 1017.1
20260505180932 11 0 3.2 8.0 0.00 0.00 0.00 75 1017.2
20260505180430 11 345 3.2 4.8 0.00 0.00 0.00 75 1017.1
20260505175932 11 347 3.2 6.4 0.00 0.00 0.00 76 1017.1
20260505175431 11 340 3.2 8.0 0.00 0.00 0.00 75 1017.1
20260505175150 11 330 3.2 8.0 0.00 0.00 0.00 75 1017.1
20260505174430 12 321 3.2 9.7 0.00 0.00 0.00 75 1017.0
20260505173931 12 337 3.2 11.3 0.00 0.00 0.00 74 1017.0
20260505173654 12 309 6.4 11.3 0.00 0.00 0.00 72 1017.0
20260505172930 12 303 3.2 16.1 0.00 0.00 0.00 71 1017.0
20260505172430 12 347 4.8 16.1 0.00 0.00 0.00 71 1017.1
20260505171931 12 271 6.4 9.7 0.00 0.00 0.00 70 1017.0
20260505171647 12 326 6.4 9.7 0.00 0.00 0.00 70 1017.0
20260505170928 12 295 3.2 9.7 0.00 0.00 0.00 70 1017.0
20260505170428 12 254 3.2 9.7 0.00 0.00 0.00 71 1017.0
20260505165929 12 283 3.2 9.7 0.00 0.00 0.00 71 1017.0
20260505165650 12 279 4.8 11.3 0.00 0.00 0.00 70 1017.0
20260505165646 12 269 6.4 11.3 0.00 0.00 0.00 70 1017.1
20260505164647 12 278 6.4 9.7 0.00 0.00 0.00 70 1017.1
20260505163927 12 228 4.8 9.7 0.00 0.00 0.00 70 1017.0
20260505163427 12 282 6.4 8.0 0.00 0.00 0.00 70 1017.1
20260505162927 13 286 1.6 9.7 0.00 0.00 0.00 70 1017.1
20260505162427 13 289 4.8 11.3 0.00 0.00 0.00 68 1017.0
20260505161927 13 255 6.4 11.3 0.00 0.00 0.00 68 1017.0
20260505161647 13 244 6.4 9.7 0.00 0.00 0.00 66 1016.9
20260505160925 13 262 1.6 6.4 0.00 0.00 0.00 64 1016.9
20260505160427 13 262 3.2 8.0 0.00 0.00 0.00 64 1017.0
20260505152925 13 213 3.2 8.0 0.00 0.00 0.00 67 1017.1
20260505152425 13 261 6.4 9.7 0.00 0.00 0.00 68 1017.1
20260505151926 13 259 3.2 9.7 0.00 0.00 0.00 68 1017.0
20260505151425 13 240 4.8 14.5 0.00 0.00 0.00 68 1017.0
20260505150925 13 190 6.4 14.5 0.00 0.00 0.00 69 1017.0
20260505150426 13 271 6.4 14.5 0.00 0.00 0.00 70 1017.1
20260505140423 12 258 3.2 8.0 0.00 0.00 0.00 70 1017.3
20260505124922 12 295 6.4 17.7 0.00 0.00 0.00 72 1017.4
20260505124423 12 180 4.8 16.1 0.00 0.00 0.00 72 1017.4
20260505123923 12 323 6.4 16.1 0.00 0.00 0.00 71 1017.5
20260505123422 12 271 4.8 16.1 0.00 0.00 0.00 71 1017.5
20260505122922 12 268 6.4 11.3 0.00 0.00 0.00 72 1017.4
20260505122422 12 251 4.8 14.5 0.00 0.00 0.00 70 1017.4
20260505122407 12 290 4.8 14.5 0.00 0.00 0.00 71 1017.4
20260505121422 12 329 6.4 11.3 0.00 0.00 0.00 72 1017.4
20260505120922 12 255 6.4 11.3 0.00 0.00 0.00 72 1017.5
20260505120422 12 266 6.4 11.3 0.00 0.00 0.00 71 1017.5
20260505115922 12 334 6.4 14.5 0.00 0.00 0.00 71 1017.5
20260505115421 12 272 8.0 14.5 0.00 0.00 0.00 73 1017.5
20260505114921 11 266 3.2 9.7 0.00 0.00 0.00 72 1017.5
20260505114421 11 334 4.8 11.3 0.00 0.00 0.00 72 1017.6
20260505113921 11 298 3.2 11.3 0.00 0.00 0.00 72 1017.6
20260505113421 11 248 6.4 11.3 0.00 0.00 0.00 72 1017.6
20260505112921 11 326 4.8 11.3 0.00 0.00 0.00 72 1017.7
20260505112419 11 323 3.2 11.3 0.00 0.00 0.00 72 1017.7
20260505111921 11 283 3.2 11.3 0.00 0.00 0.00 73 1017.8
20260505111421 11 295 4.8 8.0 0.00 0.00 0.00 73 1017.7
20260505111151 11 11 4.8 11.3 0.00 0.00 0.00 74 1017.6
20260505110642 11 293 6.4 11.3 0.00 0.00 0.00 74 1017.6
20260505102150 11 302 8.0 17.7 0.00 0.00 0.00 71 1017.9
20260505101905 11 333 6.4 14.5 0.00 0.00 0.00 71 1017.8
20260505100919 11 310 6.4 14.5 0.00 0.00 0.00 71 1017.8
20260505100417 12 4 8.0 14.5 0.00 0.00 0.00 70 1017.7
20260505100140 12 306 3.2 16.1 0.00 0.00 0.00 69 1017.7
20260505095419 12 305 4.8 16.1 0.00 0.00 0.00 69 1017.7
20260505094919 12 313 3.2 11.3 0.00 0.00 0.00 71 1017.6
20260505094419 11 295 4.8 11.3 0.00 0.00 0.00 72 1017.7
20260505093920 11 292 6.4 11.3 0.00 0.00 0.00 74 1017.8
20260505093418 11 299 3.2 11.3 0.00 0.00 0.00 74 1017.7
20260505092919 11 305 4.8 11.3 0.00 0.00 0.00 76 1017.8
20260505092418 11 0 6.4 14.5 0.00 0.00 0.00 76 1017.8
20260505091919 10 341 4.8 14.5 0.00 0.00 0.00 76 1017.8
20260505091417 10 300 6.4 9.7 0.00 0.00 0.00 78 1017.8
20260505090918 10 288 3.2 9.7 0.00 0.00 0.00 79 1017.8
20260505090417 10 319 4.8 14.5 0.00 0.00 0.00 80 1017.8
20260505085918 10 0 3.2 14.5 0.00 0.00 0.00 80 1017.9
20260505085417 10 6 3.2 8.0 0.00 0.00 0.00 80 1017.9
20260505084918 10 292 4.8 8.0 0.00 0.00 0.00 81 1017.9
20260505084416 10 0 4.8 8.0 0.00 0.00 0.00 83 1017.8
20260505083919 10 321 1.6 6.4 0.00 0.00 0.00 84 1017.9
20260505083638 10 306 3.2 6.4 0.00 0.00 0.00 86 1017.9
20260505082917 10 289 1.6 6.4 0.00 0.00 0.00 86 1017.9
20260505082417 10 289 3.2 8.0 0.00 0.00 0.00 87 1018.0
20260505081918 10 299 4.8 11.3 0.00 0.00 0.00 87 1018.0
20260505081417 10 248 4.8 11.3 0.00 0.00 0.00 89 1017.9
20260505080917 10 324 3.2 8.0 0.00 0.00 0.00 89 1018.0
20260505080416 10 319 4.8 8.0 0.00 0.00 0.00 91 1018.0
20260505075917 9 288 3.2 6.4 0.00 0.00 0.00 91 1017.9
20260505075416 9 283 0.0 6.4 0.00 0.00 0.00 92 1017.9
20260505074917 9 305 1.6 4.8 0.00 0.00 0.00 93 1017.9
20260505074415 9 351 0.0 3.2 0.00 0.00 0.00 93 1017.8
20260505073917 8 351 0.0 6.4 0.00 0.00 0.00 94 1017.8
20260505073416 8 0 1.6 6.4 0.00 0.00 0.00 94 1017.8
20260505073139 8 275 3.2 4.8 0.00 0.00 0.00 94 1017.8
20260505072414 8 314 0.0 4.8 0.00 0.00 0.00 95 1017.9
20260505071916 8 317 1.6 4.8 0.00 0.00 0.00 95 1017.9
20260505071415 8 0 1.6 8.0 0.00 0.00 0.00 95 1017.9
20260505070916 8 4 3.2 8.0 0.00 0.00 0.00 95 1017.9
20260505070415 8 340 3.2 6.4 0.00 0.00 0.00 95 1017.8
20260505065915 8 355 0.0 1.6 0.00 0.00 0.00 95 1017.8
20260505065414 8 355 0.0 3.2 0.00 0.00 0.00 95 1017.8
20260505064916 8 355 1.6 3.2 0.00 0.00 0.00 95 1017.8
20260505064414 7 355 1.6 4.8 0.00 0.00 0.00 95 1018.0
20260505063913 7 351 3.2 6.4 0.00 0.00 0.00 95 1018.1
20260505063858 7 351 1.6 6.4 0.00 0.00 0.00 95 1018.0
20260505062915 7 358 1.6 4.8 0.00 0.00 0.00 96 1018.0
20260505062644 7 358 0.0 8.0 0.00 0.00 0.00 96 1018.0
20260505061915 6 0 4.8 8.0 0.00 0.00 0.00 96 1018.1
20260505061414 6 255 0.0 0.0 0.00 0.00 0.00 95 1018.1
20260505060914 6 255 0.0 0.0 0.00 0.00 0.00 95 1018.0
20260505060413 5 255 0.0 3.2 0.00 0.00 0.00 95 1018.1
20260505055914 5 255 0.0 3.2 0.00 0.00 0.00 95 1018.0
20260505055413 5 255 0.0 3.2 0.00 0.00 0.00 95 1018.0
20260505054914 5 255 0.0 3.2 0.00 0.00 0.00 95 1018.0
20260505054412 5 255 0.0 3.2 0.00 0.00 0.00 94 1018.0
20260505053914 4 255 0.0 4.8 0.00 0.00 0.00 95 1018.0
20260505053413 4 255 0.0 4.8 0.00 0.00 0.00 95 1017.9
20260505052913 3 295 1.6 3.2 0.00 0.00 0.00 94 1017.9
20260505052410 3 295 0.0 0.0 0.00 0.00 0.00 94 1017.8
20260505051913 3 295 0.0 0.0 0.00 0.00 0.00 94 1017.7
20260505051412 3 295 0.0 0.0 0.00 0.00 0.00 94 1017.8
20260505051137 3 295 0.0 0.0 0.00 0.00 0.00 94 1017.8
20260505050412 3 295 0.0 0.0 0.00 0.00 0.00 94 1017.7
20260505041410 3 295 0.0 0.0 0.00 0.00 0.00 93 1017.5
20260505040911 3 295 0.0 0.0 0.00 0.00 0.00 93 1017.5
20260505040410 3 295 0.0 0.0 0.00 0.00 0.00 93 1017.4
20260505035909 3 295 0.0 0.0 0.00 0.00 0.00 93 1017.4
20260505035410 3 295 0.0 0.0 0.00 0.00 0.00 93 1017.4
20260505034910 3 295 0.0 0.0 0.00 0.00 0.00 93 1017.4
20260505034637 4 295 0.0 0.0 0.00 0.00 0.00 93 1017.4
20260505034131 4 295 0.0 0.0 0.00 0.00 0.00 93 1017.5
20260505033409 4 295 0.0 0.0 0.00 0.00 0.00 93 1017.5
20260505033130 4 295 0.0 0.0 0.00 0.00 0.00 93 1017.5
20260505032409 4 295 0.0 0.0 0.00 0.00 0.00 93 1017.5
20260505031909 4 295 0.0 0.0 0.00 0.00 0.00 93 1017.5
20260505031409 4 295 0.0 0.0 0.00 0.00 0.00 93 1017.5
20260505030908 4 295 0.0 0.0 0.00 0.00 0.00 93 1017.5
20260505030630 4 295 0.0 0.0 0.00 0.00 0.00 93 1017.7
20260505025908 4 295 0.0 0.0 0.00 0.00 0.00 93 1017.6
20260505025408 4 295 0.0 0.0 0.00 0.00 0.00 93 1017.7
20260505025124 4 295 0.0 0.0 0.00 0.00 0.00 93 1017.6
20260505024628 5 295 0.0 0.0 0.00 0.00 0.00 93 1017.6
20260505024141 5 295 0.0 0.0 0.00 0.00 0.00 93 1017.7
20260505023407 5 295 0.0 0.0 0.00 0.00 0.00 93 1017.7
20260505022907 5 295 0.0 0.0 0.00 0.00 0.00 93 1017.9
20260505022622 5 295 0.0 0.0 0.00 0.00 0.00 93 1017.8
20260505021906 5 295 0.0 0.0 0.00 0.00 0.00 93 1017.8
20260505021406 5 295 0.0 0.0 0.00 0.00 0.00 92 1017.9
20260505020905 5 295 0.0 0.0 0.00 0.00 0.00 93 1017.8
20260505020830 5 295 0.0 0.0 0.00 0.00 0.00 93 1017.8
20260505020826 5 295 0.0 0.0 0.00 0.00 0.00 92 1017.9
20260505015628 5 295 0.0 0.0 0.00 0.00 0.00 92 1017.9
20260505015123 5 295 0.0 0.0 0.00 0.00 0.00 92 1017.8
20260505014405 5 295 0.0 0.0 0.00 0.00 0.00 92 1017.9
20260505014347 5 295 0.0 0.0 0.00 0.00 0.00 92 1017.9
20260505013405 5 295 0.0 0.0 0.00 0.00 0.00 92 1018.0
20260505013123 5 295 0.0 0.0 0.00 0.00 0.00 92 1018.1
20260505012404 5 295 0.0 0.0 0.00 0.00 0.00 92 1018.1
20260505011905 5 295 0.0 0.0 0.00 0.00 0.00 92 1018.1
20260505011405 5 295 0.0 0.0 0.00 0.00 0.00 92 1018.2
20260505010904 5 295 0.0 0.0 0.00 0.00 0.00 92 1018.2
20260505010404 5 295 0.0 0.0 0.00 0.00 0.00 92 1018.2
20260505005904 5 295 0.0 0.0 0.00 0.00 0.00 92 1018.3
20260505005405 5 295 0.0 0.0 0.00 0.00 0.00 92 1018.2
20260505004904 5 295 0.0 0.0 0.00 0.00 0.00 92 1018.3
20260505004402 5 295 0.0 0.0 0.00 0.00 0.00 92 1018.4
20260505004132 5 295 0.0 0.0 0.00 0.00 0.00 92 1018.4
20260505003621 6 295 0.0 0.0 0.00 0.00 0.00 92 1018.4
20260505002903 6 295 0.0 1.6 0.00 0.00 0.00 91 1018.4
20260505002404 6 295 0.0 1.6 0.00 0.00 0.00 91 1018.4
20260505001903 6 295 0.0 0.0 0.00 0.00 0.00 91 1018.5
20260505001403 6 295 0.0 0.0 0.00 0.00 0.00 91 1018.5
20260505000903 6 295 0.0 0.0 0.00 0.00 0.00 91 1018.4
20260505000402 6 295 0.0 0.0 0.00 0.00 0.00 91 1018.6
20260504235903 6 295 0.0 0.0 0.00 0.00 0.00 91 1018.5
20260504235405 6 295 0.0 0.0 0.00 0.00 0.00 91 1018.6
20260504234902 6 295 0.0 0.0 0.00 0.00 0.00 91 1018.6
20260504234403 6 295 0.0 0.0 0.00 0.00 0.00 91 1018.6
20260504233902 6 295 0.0 0.0 0.00 0.00 0.00 90 1018.6
20260504233404 6 295 0.0 0.0 0.00 0.00 0.00 90 1018.6
20260504232903 6 295 0.0 0.0 0.00 0.00 0.00 90 1018.7
20260504232400 6 295 0.0 0.0 0.00 0.00 0.00 90 1018.6
20260504231902 6 295 0.0 0.0 0.00 0.00 0.00 90 1018.5
20260504231854 6 295 0.0 0.0 0.00 0.00 0.00 90 1018.5
20260504230903 6 295 0.0 0.0 0.00 0.00 0.00 90 1018.5
20260504230404 6 295 0.0 0.0 0.00 0.00 0.00 90 1018.6
20260504225903 7 295 0.0 0.0 0.00 0.00 0.00 90 1018.6
20260504225404 7 295 0.0 0.0 0.00 0.00 0.00 90 1018.6
20260504224904 7 295 0.0 0.0 0.00 0.00 0.00 89 1018.6
20260504224403 7 295 0.0 0.0 0.00 0.00 0.00 89 1018.7
20260504223903 7 295 0.0 0.0 0.00 0.00 0.00 89 1018.8
20260504223403 7 295 0.0 0.0 0.00 0.00 0.00 89 1018.8
20260504222900 7 295 0.0 3.2 0.00 0.00 0.00 89 1018.8
20260504222402 7 295 0.0 3.2 0.00 0.00 0.00 89 1018.9
20260504221900 7 298 0.0 3.2 0.00 0.00 0.00 88 1019.0
20260504221402 7 299 0.0 1.6 0.00 0.00 0.00 88 1018.8
20260504221123 7 299 0.0 1.6 0.00 0.00 0.00 88 1018.9
20260504220401 7 299 0.0 1.6 0.00 0.00 0.00 88 1018.9
20260504215900 7 299 0.0 0.0 0.00 0.00 0.00 87 1018.8
20260504215401 7 299 0.0 0.0 0.00 0.00 0.00 87 1018.9
20260504214859 8 299 0.0 0.0 0.00 0.00 0.00 86 1018.9
20260504214401 8 299 0.0 0.0 0.00 0.00 0.00 86 1018.9
20260504213859 8 299 0.0 0.0 0.00 0.00 0.00 86 1018.9
20260504213402 8 299 0.0 0.0 0.00 0.00 0.00 86 1018.9
20260504212859 8 299 0.0 0.0 0.00 0.00 0.00 85 1018.9
20260504212400 8 299 0.0 0.0 0.00 0.00 0.00 85 1018.8